Wichita, KS

6:14 PM CDT on April 25, 2018 (GMT -0500)
Wichita Eisenhower National Airport

Weather History for KICT - July, 2014

Change the Weather History Date:

Sunday, July 6, 2014

  Actual Average Record
Temperature  
Mean Temperature 84 °F 81 °F  
Max Temperature 95 °F 92 °F 107 °F (1980)
Min Temperature 73 °F 69 °F 55 °F (1972)
Degree Days  
Heating Degree Days 0 0  
Month to date heating degree days 0 0  
Since 1 June heating degree days 0 6  
Since 1 July heating degree days 0 0  
Cooling Degree Days 19 16  
Month to date cooling degree days 66 91  
Year to date cooling degree days 675 556  
Since 1 June cooling degree days 408 420  
Growing Degree Days 34 (Base 50)    
Moisture  
Dew Point 68 °F    
Average Humidity 64    
Maximum Humidity 84    
Minimum Humidity 44    
Precipitation  
Precipitation 0.00 in 0.13 in 3.31 in (1904)
Month to date precipitation 1.12 0.75  
Year to date precipitation 17.65 17.81  
Snow  
Snow 0.00 in 0.00 in 0.00 in (2007)
Month to date snowfall 0.0 0.0  
Since 1 June snowfall 0.0 0.0  
Since 1 July snowfall 0.0 0.0  
Snow Depth 0.00 in    
Sea Level Pressure  
Sea Level Pressure 29.86 in    
Wind  
Wind Speed 12 mph (South)    
Max Wind Speed 21 mph    
Max Gust Speed 27 mph    
Visibility 10 miles    
Events      
T = Trace of Precipitation, MM = Missing Value Source: NWS Daily Summary

Daily Weather History Graph

Daily Weather History Graph

Search for Another Location

Airport or City:

Astronomy

Jul. 06, 2014 Rise Set
Actual Time 6:14 AM CDT 8:54 PM CDT
Civil Twilight 5:43 AM CDT 9:25 PM CDT
Nautical Twilight 5:05 AM CDT 10:03 PM CDT
Astronomical Twilight 4:21 AM CDT 10:46 PM CDT
Moon 2:59 PM CDT (7/6) 1:29 AM CDT (7/6)
Length of Visible Light 15h 41m
Length of Day
14h 39m
Waxing Gibbous, 62% of the Moon is Illuminated
Jul 6
Waxing Gibbous
Jul 12
Full
Jul 18
Last Quarter
Jul 26
New
Aug 3
First Quarter

Hourly Weather History & Observations

Time (CDT) Temp. Heat Index Dew Point Humidity Pressure Visibility Wind Dir Wind Speed Gust Speed Precip Events Conditions
12:53 AM 79.0 °F - 68.0 °F 69% 29.92 in 10.0 mi South 13.8 mph - N/A   Partly Cloudy
1:53 AM 77.0 °F - 69.1 °F 76% 29.92 in 10.0 mi South 13.8 mph - N/A   Partly Cloudy
2:53 AM 75.9 °F - 69.1 °F 79% 29.91 in 10.0 mi South 11.5 mph - N/A   Partly Cloudy
3:53 AM 75.0 °F - 69.1 °F 82% 29.90 in 10.0 mi South 12.7 mph - N/A   Partly Cloudy
4:53 AM 73.9 °F - 68.0 °F 82% 29.88 in 10.0 mi South 11.5 mph - N/A   Partly Cloudy
5:53 AM 73.9 °F - 68.0 °F 82% 29.88 in 10.0 mi South 12.7 mph - N/A   Scattered Clouds
6:53 AM 73.0 °F - 66.9 °F 81% 29.90 in 10.0 mi South 11.5 mph - N/A   Scattered Clouds
7:53 AM 75.0 °F - 66.9 °F 76% 29.90 in 10.0 mi South 12.7 mph - N/A   Scattered Clouds
8:53 AM 79.0 °F - 68.0 °F 69% 29.90 in 10.0 mi South 16.1 mph - N/A   Scattered Clouds
9:53 AM 82.0 °F 85.5 °F 69.1 °F 65% 29.89 in 10.0 mi SSW 17.3 mph - N/A   Scattered Clouds
10:53 AM 84.0 °F 88.4 °F 70.0 °F 63% 29.88 in 10.0 mi SSW 15.0 mph - N/A   Scattered Clouds
11:53 AM 86.0 °F 90.1 °F 69.1 °F 57% 29.88 in 10.0 mi SSW 15.0 mph - N/A   Scattered Clouds
12:53 PM 89.1 °F 94.1 °F 70.0 °F 53% 29.87 in 10.0 mi South 17.3 mph 20.7 mph N/A   Scattered Clouds
1:53 PM 91.0 °F 96.6 °F 70.0 °F 50% 29.85 in 10.0 mi South 13.8 mph - N/A   Mostly Cloudy
2:53 PM 91.9 °F 96.9 °F 69.1 °F 47% 29.84 in 10.0 mi South 12.7 mph - N/A   Mostly Cloudy
3:53 PM 93.0 °F 97.4 °F 68.0 °F 44% 29.83 in 10.0 mi SSW 13.8 mph - N/A   Scattered Clouds
4:53 PM 93.9 °F 99.1 °F 69.1 °F 44% 29.81 in 10.0 mi SW 10.4 mph - N/A   Scattered Clouds
5:53 PM 93.9 °F 99.1 °F 69.1 °F 44% 29.79 in 10.0 mi SSW 8.1 mph - N/A   Scattered Clouds
6:53 PM 93.0 °F 97.4 °F 68.0 °F 44% 29.79 in 10.0 mi SSW 9.2 mph - N/A   Scattered Clouds
7:53 PM 90.0 °F 93.6 °F 68.0 °F 48% 29.80 in 10.0 mi South 5.8 mph - N/A   Scattered Clouds
8:53 PM 86.0 °F 90.1 °F 69.1 °F 57% 29.79 in 10.0 mi South 6.9 mph - N/A   Partly Cloudy
9:53 PM 82.0 °F 84.9 °F 68.0 °F 62% 29.81 in 10.0 mi South 9.2 mph - N/A   Partly Cloudy
10:53 PM 79.0 °F - 68.0 °F 69% 29.83 in 10.0 mi South 8.1 mph - N/A   Partly Cloudy
11:53 PM 78.1 °F - 64.9 °F 64% 29.83 in 10.0 mi South 6.9 mph - N/A   Partly Cloudy